Погода в Богатыне

Польша     50°54′07″N   14°57′42″E
темп.,
°C
ветер,
м/с
пор.,
м/с
влажн.,
%
обл.,
%
осадки,
мм/ч
давл.,
гПа
погр.,
м
22 октября, пт
пт2223:00+8зюз91376100 0.3 10081103
02:00+6з713770 0.3 1011785
05:00+5зюз713775 0.0 1012648
08:00+5юз6137571 0.0 1013657
11:00+8юз8146015 0.0 10141546
14:00+10зюз9164999 0.0 10122013
17:00+9зюз10176098 0.1 10121616
20:00+7зюз91784100 0.3 10151341
23 октября, сб
сб2323:00+6з7137918 2.1 1018955
02:00+4з613805 2.1 1020695
05:00+4зюз613826 0.0 1021574
08:00+3зюз5128497 0.0 1022442
11:00+7з71172100 0.3 1024987
14:00+8зсз6107097 0.9 10251222
17:00+7зсз597213 0.6 1026726
20:00+4зюз22895 0.7 102931
24 октября, вс
вс2423:00+3ююз229129 0.0 103117
02:00+3ююз22917 0.0 103119
05:00+3ю22913 0.0 103120
08:00+2ю22900 0.0 103226
11:00+8ю34686 0.0 1031454
14:00+10ю34525 0.0 1030884
17:00+8ю356142 0.0 1028127
20:00+5ююв336997 0.0 102846
25 октября, пн
пн2523:00+5ю496010 0.0 1027189
02:00+3ююв34645 0.0 102766
05:00+3ю37680 0.0 1025168
08:00+4ю512660 0.0 1025341
11:00+8ю712570 0.0 1025538
14:00+11ю710500 0.0 1024594
17:00+9ю595942 0.0 1023312
20:00+6ююз4966100 0.0 1024144
26 октября, вт
вт2623:00+5ююз4964100 0.0 1024152
02:00+4ююз476895 0.0 1024110
05:00+4ююз4672100 0.0 102587
08:00+3ююз4574100 0.0 102589
11:00+9ююз455832 0.0 1025265
14:00+12юз45525 0.0 1024567
17:00+10ююз35645 0.0 1024105
20:00+7ююз347268 0.0 102556